Track STARLINK-5009 now! 10-day predictions STARLINK-5009 is classified as:
1 53928U 22119AU 24325.85482545 .00001800 00000-0 13116-3 0 9993 2 53928 53.2175 271.1436 0001537 89.3511 270.7657 15.08839768120012